This demonstration page uses our WeatherBlox Daily Observations layout. Learn more.

Left ArrowRight Arrow

31.31129, -92.44514

Hourly Observations for December 3, 2022

Temp ( °F °C ) Dew Point ( °F °C ) Humidity (%) Winds ( mph kmh ) Pressure ( in mb ) Visibility ( mi km ) Precip ( " mm )
12:53 am 00:53 Cloudy 68 20 66 18.9 93 93 S 5 7 30.20 1023 7 11 0.00 0.00
1:53 am 01:53 Cloudy with Mist and Fog 67 19.4 67 19.4 100 100 SE 3 6 30.22 1023 3 4 0.01 0.13
2:31 am 02:31 Cloudy with Mist and Fog 68 20 67 19.4 96 96 E 3 6 30.22 1023 3 4 0.01 0.13
2:48 am 02:48 Cloudy with Mist and Fog 66 19 66 19 100 100 SE 3 6 30.21 1023 1 2 0.01 0.13
2:53 am 02:53 Cloudy with Mist and Fog 67 19.4 67 19.4 100 100 ESE 5 7 30.22 1023 1 2 0.01 0.13
3:00 am 03:00 Cloudy with Mist and Fog 67 19.4 66 18.9 97 97 SE 7 11 30.20 1023 1 1 0.00 0.00
3:28 am 03:28 Cloudy with Mist and Fog 67 19.4 67 19.4 100 100 SE 6 9 30.21 1023 1 2 0.00 0.00
3:42 am 03:42 Mostly Clear with Mist and Fog 67 19.4 67 19.4 100 100 SE 3 6 30.22 1023 1 1 0.00 0.00
3:53 am 03:53 Mostly Clear with Fog 67 19.4 67 19.4 100 100 SE 3 6 30.22 1023 1 1 0.00 0.00
4:07 am 04:07 Mostly Clear with Fog 67 19.4 67 19.4 100 100 ESE 3 6 30.22 1023 1 1 0.00 0.00
4:24 am 04:24 Cloudy with Mist and Fog 67 19.4 67 19.4 100 100 ESE 3 6 30.22 1023 2 2 0.00 0.00
4:37 am 04:37 Cloudy with Light Rain 67 19.4 67 19.4 100 100 SE 7 11 30.22 1023 3 4 0.01 0.13
4:53 am 04:53 Mostly Cloudy with Mist and Fog 67 19.4 66 18.9 97 97 SE 7 11 30.22 1024 3 4 0.01 0.13
5:02 am 05:02 Mostly Cloudy with Mist and Fog 66 18.9 66 18.9 100 100 SSE 7 11 30.22 1023 2 3 0.00 0.00
5:09 am 05:09 Mostly Cloudy with Mist and Fog 66 18.9 65 18.3 96 96 SE 7 11 30.22 1023 1 1 0.00 0.00
5:20 am 05:20 Mostly Cloudy with Fog 64 17.8 64 17.8 100 100 SE 5 7 30.22 1023 0 0 0.00 0.00
5:46 am 05:46 Cloudy with Fog 66 18.9 66 18.9 100 100 ESE 6 9 30.23 1024 0 0 0.00 0.00
5:53 am 05:53 Mostly Clear with Fog 67 19.4 66 18.9 97 97 ESE 6 9 30.24 1024 0 0 0.00 0.00
6:34 am 06:34 Mostly Clear with Fog 66 18.9 66 18.9 100 100 ESE 5 7 30.26 1025 1 1 0.00 0.00
6:49 am 06:49 Cloudy with Mist and Fog 66 19 66 19 100 100 ESE 5 7 30.26 1025 1 2 0.00 0.00
6:53 am 06:53 Cloudy with Mist and Fog 67 19.4 67 19.4 100 100 SE 3 6 30.27 1025 1 2 0.00 0.00
7:05 am 07:05 Cloudy with Fog 66 18.9 66 18.9 100 100 SSE 6 9 30.26 1025 0 0 0.00 0.00
7:48 am 07:48 Cloudy with Mist and Fog 66 19 66 19 100 100 Calm 30.28 1025 1 1 0.00 0.00
7:53 am 07:53 Cloudy with Mist and Fog 67 19.4 66 18.9 97 97 Calm 30.29 1026 1 2 0.00 0.00
8:01 am 08:01 Cloudy with Mist and Fog 67 19.4 67 19.4 100 100 Calm 30.29 1026 3 5 0.00 0.00
8:53 am 08:53 Cloudy with Mist and Fog 68 20 68 20 100 100 Calm 30.31 1026 4 6 0.00 0.00
9:00 am 09:00 Cloudy with Mist and Fog 69 20.6 69 20.6 100 100 Calm 30.30 1026 4 6 0.00 0.00
9:11 am 09:11 Mostly Cloudy with Mist and Fog 70 21.1 69 20.6 97 97 Calm 30.30 1026 6 10 0.00 0.00
9:32 am 09:32 Partly Cloudy 71 21.7 69 20.6 93 93 WNW 7 11 30.31 1026 7 11 0.00 0.00
9:53 am 09:53 Partly Cloudy 74 23.3 69 20.6 85 85 NW 12 19 30.31 1026 9 14 0.00 0.00
10:53 am 10:53 Partly Cloudy 77 25 68 20 74 74 NW 9 15 30.31 1026 10 16 0.00 0.00
11:05 am 11:05 Mostly Cloudy 77 25 67 19.4 71 71 NNW 12 19 30.30 1026 10 16 0.00 0.00
11:15 am 11:15 Partly Cloudy 77 25 67 19.4 71 71 NW 9 15 30.30 1026 10 16 0.00 0.00
11:53 am 11:53 Mostly Cloudy 80 26.7 67 19.4 64 64 NNW 9 15 30.29 1026 10 16 0.00 0.00
12:02 pm 12:02 Partly Cloudy 79 26.1 66 18.9 65 65 NW 7 11 30.27 1025 10 16 0.00 0.00
12:53 pm 12:53 Mostly Cloudy 78 25.6 65 18.3 64 64 NNW 8 13 30.27 1025 10 16 0.00 0.00
1:34 pm 13:34 Mostly Cloudy 80 26.7 64 17.8 58 58 N 7 11 30.25 1024 10 16 0.00 0.00
1:53 pm 13:53 Mostly Cloudy 81 27.2 63 17.2 54 54 N 7 11 30.25 1024 10 16 0.00 0.00
2:00 pm 14:00 Mostly Sunny 81 27.2 64 17.8 57 57 VRB 7 11 30.24 1024 10 16 0.00 0.00
2:53 pm 14:53 Mostly Sunny 81 27.2 63 17.2 54 54 N 7 11 30.24 1024 10 16 0.00 0.00
3:53 pm 15:53 Cloudy 79 26.1 65 18.3 62 62 N 12 19 30.25 1024 10 16 0.00 0.00
4:53 pm 16:53 Cloudy 75 23.9 64 17.8 69 69 NNE 8 13 30.26 1025 10 16 0.00 0.00
5:53 pm 17:53 Cloudy 74 23.3 63 17.2 69 69 N 7 11 30.28 1025 10 16 0.00 0.00
6:53 pm 18:53 Clear 69 20.6 62 16.7 78 78 NE 7 11 30.30 1026 10 16 0.00 0.00
7:53 pm 19:53 Clear 66 18.9 59 15 78 78 NE 12 19 30.32 1027 10 16 0.00 0.00
8:28 pm 20:28 Mostly Cloudy 64 17.8 59 15 84 84 NE 10 17 30.32 1027 10 16 0.00 0.00
8:53 pm 20:53 Cloudy 64 17.8 58 14.4 80 80 NNE 8 13 30.32 1027 10 16 0.00 0.00
9:24 pm 21:24 Partly Cloudy 62 16.7 55 12.8 78 78 NE 8 13 30.32 1027 10 16 0.00 0.00
9:53 pm 21:53 Mostly Clear 60 15.6 54 12.2 80 80 NE 12 19 30.33 1027 10 16 0.00 0.00
10:53 pm 22:53 Clear 57 13.9 48 8.9 72 72 NE 6 9 30.34 1027 10 16 0.00 0.00
11:53 pm 23:53 Clear 56 13.3 45 7.2 66 66 NE 8 13 30.32 1027 10 16 0.00 0.00

Powered by AerisWeather